Alva, OK

3:54 PM CDT on October 17, 2017 (GMT -0500)
Alva Regional

Weather History for KAVK - February, 2013

Change the Weather History Date:

Monday, February 25, 2013

  Actual Average Record
Temperature  
Mean Temperature 34 °F -  
Max Temperature 35 °F 56 °F 80 °F (1981)
Min Temperature 32 °F 30 °F 2 °F (1960)
Degree Days  
Heating Degree Days 32    
Moisture  
Dew Point 32 °F    
Average Humidity 99    
Maximum Humidity 100    
Minimum Humidity 87    
Precipitation  
Precipitation 4.72 in - - ()
Sea Level Pressure  
Sea Level Pressure 29.78 in    
Wind  
Wind Speed 20 mph (NNE)    
Max Wind Speed 30 mph    
Max Gust Speed 39 mph    
Visibility 2 miles    
Events Rain , Snow , Thunderstorm    
Averages and records for this station are not official NWS values.
T = Trace of Precipitation, MM = Missing Value Source: NWS Daily Summary

Daily Weather History Graph

Daily Weather History Graph

Search for Another Location

Airport or City:

Trip Planner

Search our weather history database for the weather conditions in past years. The results will help you decide how hot, cold, wet, or windy it might be!

Date:

Astronomy

Feb. 25, 2013 Rise Set
Actual Time 7:10 AM CST 6:25 PM CST
Civil Twilight 6:44 AM CST 6:51 PM CST
Nautical Twilight 6:14 AM CST 7:21 PM CST
Astronomical Twilight 5:44 AM CST 7:51 PM CST
Moon 6:38 PM CST (2/25) 6:42 AM CST (2/25)
Length of Visible Light 12h 07m
Length of Day
11h 15m
Full, 100% of the Moon is Illuminated
Feb 25
Full
Feb 25
Full
Mar 4
Last Quarter
Mar 11
New
Mar 19
First Quarter

Hourly Weather History & Observations

Time (CST) Temp. Windchill Dew Point Humidity Pressure Visibility Wind Dir Wind Speed Gust Speed Precip Events Conditions
12:10 AM 35.6 °F 24.0 °F 32.0 °F 87% 29.82 in 6.0 mi NNE 23.0 mph 28.8 mph N/A Rain Light Rain
12:50 AM 35.6 °F 25.2 °F 32.0 °F 87% 29.82 in 5.0 mi NNE 18.4 mph 31.1 mph 0.01 in Rain Light Rain
1:10 AM 33.8 °F 22.8 °F 32.0 °F 93% 29.82 in 4.0 mi NNE 18.4 mph - N/A Snow Light Snow
1:30 AM 33.8 °F 22.8 °F 32.0 °F 93% 29.83 in 3.0 mi North 18.4 mph - 0.04 in Rain Light Rain
1:50 AM 33.8 °F 22.8 °F 32.0 °F 93% 29.81 in 4.0 mi North 18.4 mph 21.9 mph 0.05 in Rain Light Rain
2:10 AM 33.8 °F 23.5 °F 32.0 °F 93% 29.81 in 3.0 mi North 16.1 mph - N/A Snow Light Snow
2:30 AM 32.0 °F 21.2 °F 32.0 °F 100% 29.82 in 3.0 mi North 16.1 mph - 0.03 in Rain Light Rain
2:50 AM 32.0 °F 21.6 °F 32.0 °F 100% 29.82 in 2.5 mi North 15.0 mph - 0.07 in Rain Rain
3:10 AM 32.0 °F 21.6 °F 32.0 °F 100% 29.82 in 2.5 mi North 15.0 mph - 0.02 in Rain Rain
3:30 AM 32.0 °F 23.0 °F 32.0 °F 100% 29.84 in 1.0 mi North 11.5 mph - 0.18 in Snow Light Snow
3:50 AM 32.0 °F 21.2 °F 32.0 °F 100% 29.82 in 0.5 mi North 16.1 mph - 1.72 in Snow Snow
4:10 AM 32.0 °F 20.1 °F 32.0 °F 100% 29.78 in 0.5 mi NNE 19.6 mph 25.3 mph 0.21 in Snow Snow
4:30 AM 32.0 °F 19.8 °F 32.0 °F 100% 29.77 in 1.2 mi NNE 20.7 mph 27.6 mph 0.26 in Snow Light Snow
4:50 AM 32.0 °F 20.5 °F 32.0 °F 100% 29.79 in 1.2 mi NNE 18.4 mph 26.5 mph 0.32 in Snow Light Snow
5:10 AM 32.0 °F 19.2 °F 32.0 °F 100% 29.78 in 0.5 mi NNE 23.0 mph 27.6 mph 0.11 in Snow Snow
5:30 AM 32.0 °F 19.5 °F 32.0 °F 100% 29.77 in 0.8 mi NNE 21.9 mph - 0.62 in Snow Light Snow
6:10 AM 32.0 °F 20.1 °F 32.0 °F 100% 29.78 in 0.5 mi NNE 19.6 mph 27.6 mph 0.09 in Snow Snow
6:30 AM 32.0 °F 20.1 °F 32.0 °F 100% 29.79 in 0.5 mi NE 19.6 mph 26.5 mph 0.34 in Thunderstorm Unknown
6:50 AM 32.0 °F - 32.0 °F 100% 29.79 in 0.5 mi North - - 0.75 in   Unknown
7:10 AM 32.0 °F - 32.0 °F 100% 29.80 in 0.5 mi North - - 0.05 in Snow Snow
7:30 AM 32.0 °F 22.1 °F 32.0 °F 100% 29.81 in 0.2 mi NE 13.8 mph - 0.30 in Snow Heavy Snow
7:50 AM 32.0 °F 21.2 °F 32.0 °F 100% 29.81 in 0.2 mi NNE 16.1 mph - 0.71 in   Unknown
8:10 AM 32.0 °F - 32.0 °F 100% 29.80 in 0.2 mi North - - 0.13 in   Unknown
8:30 AM 32.0 °F 20.1 °F 32.0 °F 100% 29.78 in 0.2 mi NNE 19.6 mph 25.3 mph 0.29 in   Unknown
8:50 AM 32.0 °F 19.5 °F 32.0 °F 100% 29.77 in 0.5 mi NNE 21.9 mph 29.9 mph 0.31 in Snow Snow
9:10 AM 32.0 °F 19.5 °F 32.0 °F 100% 29.77 in 0.8 mi NNE 21.9 mph 29.9 mph N/A Snow Light Snow
9:30 AM 32.0 °F 19.8 °F 32.0 °F 100% 29.77 in 1.2 mi NNE 20.7 mph 31.1 mph N/A   Clear
9:50 AM 32.0 °F 19.5 °F 32.0 °F 100% 29.75 in 2.5 mi NNE 21.9 mph 29.9 mph N/A   Partly Cloudy
10:10 AM 32.0 °F 18.1 °F 32.0 °F 100% 29.75 in 5.0 mi NNE 27.6 mph 34.5 mph N/A   Mostly Cloudy
10:30 AM 32.0 °F 18.6 °F 32.0 °F 100% 29.77 in 5.0 mi NNE 25.3 mph 33.4 mph N/A   Overcast
10:50 AM 32.0 °F 20.1 °F 32.0 °F 100% 29.78 in 7.0 mi NNE 19.6 mph 28.8 mph N/A   Overcast
11:10 AM 32.0 °F 18.6 °F 32.0 °F 100% 29.77 in 5.0 mi NNE 25.3 mph 33.4 mph N/A   Overcast
11:30 AM 32.0 °F 17.9 °F 32.0 °F 100% 29.76 in 1.0 mi NNE 28.8 mph 33.4 mph N/A Rain Light Rain
11:50 AM 32.0 °F 18.6 °F 32.0 °F 100% 29.74 in 0.2 mi NNE 25.3 mph 36.8 mph 0.06 in   Overcast
12:10 PM 32.0 °F 18.4 °F 32.0 °F 100% 29.73 in 0.2 mi NNE 26.5 mph 35.7 mph 0.01 in Snow Heavy Snow
12:30 PM 32.0 °F 17.6 °F 32.0 °F 100% 29.73 in 0.2 mi NNE 29.9 mph 39.1 mph 0.03 in Snow Heavy Snow
12:50 PM 32.0 °F 19.2 °F 32.0 °F 100% 29.73 in 0.2 mi NNE 23.0 mph 32.2 mph 0.05 in Snow Heavy Snow
1:00 PM 32.0 °F 19.2 °F 32.0 °F 100% 29.73 in 0.2 mi NNE 23.0 mph 33.4 mph 0.06 in Snow Heavy Snow